Location: Mag�
(47.0270°N, 0.1910°W)
Time: 11:32:58
(UTC+00:00)

Daily predictions for brighter satellites

Satellite Brightness Start Highest point End
(mag) Time Altitude Azimuth Time Altitude Azimuth Time Altitude Azimuth
H-2A R/B 3.2 17:24:59 10° ESE 17:28:48 22° ENE 17:32:40 10° NNE
Meteor 1-21 Rocket 4.3 17:23:49 10° S 17:29:12 55° E 17:34:40 10° NNE
Cosmos 2344 4.4 17:21:39 10° NW 17:30:28 58° NE 17:42:36 10° ESE
Cosmos 1939 Rocket 3.2 17:26:49 10° SE 17:30:41 44° ENE 17:34:32 10° N
H-2A R/B 2.1 17:27:03 10° NNE 17:31:26 68° ESE 17:35:41 10° S
USA 229 DEB 4.0 17:25:06 10° NW 17:32:18 63° NE 17:39:53 10° SE
USA 229 4.0 17:25:12 10° NW 17:32:24 63° NE 17:40:00 10° SE
Cosmos 44 3.4 17:28:04 10° SSW 17:32:53 85° SE 17:38:04 10° NE
Cosmos 1602 Rocket 4.1 17:29:27 10° SSE 17:33:27 37° E 17:37:31 10° NNE
CZ-3B R/B 1.9 17:31:23 10° NW 17:33:43 47° NNE 17:39:27 10° ESE
SeaSat 1 3.5 17:30:41 10° NNE 17:35:23 45° NW 17:40:03 10° SW
Feng Yun 1-1 Rocket 4.5 17:30:52 10° SE 17:36:08 49° ENE 17:41:33 10° N
SJ 16-02 1.8 17:31:53 10° SSW 17:36:15 63° WNW 17:40:37 10° NNE
Cosmos 2112 Rocket 4.0 17:32:14 10° NNW 17:37:29 74° ENE 17:42:39 10° SSE
FengYun 1-2 T 4.3 17:33:17 10° SSE 17:38:52 88° ENE 17:44:33 10° NNW
Cosmos 990 Rocket 4.0 17:34:34 10° S 17:39:43 66° ESE 17:44:52 10° NNE
YAOGAN 1 3.7 17:36:51 10° ESE 17:40:12 22° ENE 17:43:34 10° NNE
Cosmos 1844 Rocket 3.3 17:35:46 10° SW 17:41:21 60° WNW 17:46:58 10° NNE
Cosmos 1689 Rocket 4.2 17:41:36 10° E 17:41:45 10° E 17:41:54 10° E
H-2A R/B 3.4 17:37:58 10° S 17:42:03 56° W 17:46:20 10° NNW
Aureole 3 Rocket 3.4 17:39:53 10° NNE 17:42:47 28° ENE 17:46:15 10° SE
Cosmos 1818 4.5 17:37:48 10° WSW 17:43:03 47° NW 17:48:21 10° NNE
COSMOS 2406 3.4 17:38:22 10° NNW 17:44:00 50° ENE 17:49:36 10° SE
Cosmos 2082 Rocket 3.1 17:39:15 10° N 17:44:10 28° NE 17:49:02 10° ESE
Cosmos 1844 4.1 17:39:43 10° SW 17:45:23 69° WNW 17:51:09 10° NNE
Cosmos 1703 3.3 17:43:36 10° S 17:47:24 58° E 17:51:14 10° NNE
NOSS 3-1 (A) 4.1 17:40:37 10° NW 17:47:58 68° NE 17:56:33 10° SE
X-37B 1.2 17:45:12 10° W 17:48:19 55° S 17:51:28 10° ESE
IRS-1C Rocket 4.4 17:44:39 10° SE 17:49:38 46° ENE 17:54:39 10° N
ISS -2.8 17:48:02 10° WNW 17:51:13 37° N 17:53:50 14° ENE
Cosmos 1812 Rocket 3.6 17:47:41 10° N 17:52:01 58° ENE 17:56:18 10° SSE
Meteor 2-1 Rocket 4.5 17:48:19 10° NNW 17:53:50 72° W 17:59:18 10° S
ATLAS 2AS CENTAUR R/B 4.4 17:48:01 10° WNW 17:54:11 24° NNW 18:00:08 10° NE
Okean O Rocket 2.3 17:51:03 10° S 17:55:26 60° WSW 17:59:49 10° NNW
ATLAS 5 CENTAUR R/B 4.0 17:54:04 10° NW 17:56:32 14° NNW 17:59:14 10° NNE
CZ-4 R/B 1.9 17:56:02 10° SE 17:59:43 36° ENE 18:03:21 10° N
Iridium 4 Rocket 3.7 17:55:11 10° N 18:00:24 48° E 18:05:09 10° SSE
ERS-2 3.0 17:59:01 10° NE 18:02:14 29° E 18:05:26 10° SSE
SKYMED 2 3.6 17:58:00 10° NNE 18:02:18 59° E 18:06:35 10° S
CSL-04 Rocket 4.5 17:59:40 10° ESE 18:04:19 30° ENE 18:09:02 10° N
CZ-4C R/B 4.2 18:02:43 10° NW 18:06:55 19° N 18:11:38 10° NE
Okean-O 3.0 18:03:04 10° SE 18:07:13 41° ENE 18:11:24 10° N
Cosmos 1340 2.6 18:07:10 10° S 18:10:54 89° ESE 18:14:41 10° NNE
USA 234 4.1 18:05:52 13° ENE 18:11:09 38° N 18:17:03 10° WNW
Cosmos 1346 Rocket 3.3 18:07:53 10° SSE 18:11:28 35° E 18:15:06 10° NNE
Cosmos 2278 Rocket 2.4 18:06:09 10° S 18:11:36 50° ESE 18:17:04 10° NE
Cosmos 858 Rocket 4.5 18:08:22 10° SSW 18:13:38 77° ESE 18:18:55 10° NNE
Cosmos 1953 Rocket 4.4 18:11:22 10° SSE 18:15:02 27° E 18:17:58 14° NE
CZ-2C R/B 3.2 18:10:13 10° SSE 18:15:42 83° ENE 18:21:30 10° NNW
Cosmos 2292 Rocket 4.4 18:15:46 10° SSE 18:19:42 26° E 18:20:41 24° ENE
SAR-Lupe-4 4.0 18:17:50 17° NE 18:20:13 37° E 18:23:33 10° SSE
Cosmos 44 Rocket 4.3 18:17:38 10° S 18:21:45 27° ESE 18:23:19 23° E
Cosmos 405 2.9 18:18:42 10° NNW 18:22:15 86° W 18:25:46 10° S
NOSS 2-1 (E) 3.9 18:20:58 10° WSW 18:24:09 44° NW 18:26:47 16° NNE
Cosmos 1627 Rocket 4.5 18:20:42 10° S 18:26:55 88° E 18:33:17 10° N
TELKOM 3 3.0 18:26:33 10° WNW 18:28:34 54° N 18:28:34 54° N
ARGOS 3.3 18:24:12 10° SE 18:29:19 48° ENE 18:34:29 10° N
Cosmos 1869 4.0 18:26:57 10° N 18:30:11 30° ENE 18:30:11 30° ENE
Meteor 2-19 Rocket 4.4 18:25:01 10° S 18:31:08 71° E 18:37:16 10° NNE
PSLV R/B 3.9 18:29:25 10° NNE 18:33:36 63° ESE 18:37:46 10° S
Cosmos 1898 Rocket 4.2 18:29:32 10° SW 18:34:40 53° WNW 18:39:47 10° NNE
Cosmos 372 Rocket 3.9 18:30:08 10° S 18:35:17 65° ESE 18:39:58 13° NNE
Cosmos 1092 Rocket 4.3 18:29:45 10° SSW 18:35:52 67° WNW 18:42:00 10° N
SAR-Lupe-1 4.0 18:34:04 21° NNE 18:36:19 59° ESE 18:39:52 10° S
CZ-4B R/B 2.5 18:34:03 10° N 18:37:12 42° WNW 18:40:15 10° SW
CZ-2C R/B 3.3 18:33:45 11° NNE 18:38:35 34° E 18:43:40 10° SSE
CZ-2D R/B 4.4 18:36:31 10° S 18:40:12 45° W 18:43:54 10° NNW
Cosmos 494 Rocket 4.5 18:36:38 10° N 18:41:23 36° ENE 18:42:29 32° E
Cosmos 2150 Rocket 4.4 18:39:48 10° S 18:44:35 40° ESE 18:45:58 33° ENE
MOS 1 Rocket 3.5 18:40:52 10° N 18:45:06 62° WNW 18:49:23 10° SSW
Cosmos 1048 Rocket 4.0 18:41:28 10° NNW 18:46:31 54° ENE 18:49:36 23° SE
Cosmos-2242 3.2 18:42:38 10° NNW 18:46:56 72° W 18:51:14 10° S
COSMO-SKYMED 1 3.7 18:46:10 10° N 18:50:19 45° WNW 18:54:27 10° SW
Meteor 1-11 4.3 18:45:35 10° SSW 18:51:16 77° WNW 18:56:55 10° N
Cosmos 1758 Rocket 4.2 18:49:54 10° SSW 18:54:18 58° WNW 18:58:45 10° N
USA 290 3.8 18:52:18 10° NW 18:55:16 36° WSW 18:58:12 10° S
Cosmos 1937 Rocket 4.5 18:52:08 10° SW 18:57:15 47° WNW 19:02:25 10° NNE
SL-08 RB Rocket 3.6 18:59:19 36° SE 19:00:58 61° ENE 19:05:23 10° N
CSL-04 Debris 4.1 18:57:44 10° SSE 19:03:08 88° ENE 19:08:34 10° NNW
Helios 1A Rocket 3.2 19:01:53 10° S 19:06:00 68° WSW 19:10:08 10° NNW
Cosmos 2221 4.3 19:02:19 10° N 19:03:42 19° NNE 19:03:42 19° NNE
H-2A R/B 2.5 19:02:46 10° S 19:07:45 60° W 19:12:56 10° NNW
Cosmos 389 Rocket 4.5 19:04:47 10° N 19:05:55 19° N 19:05:55 19° N
Cosmos 1833 Rocket 3.7 19:03:12 10° NW 19:08:33 46° WSW 19:13:52 10° S
Cosmos 1125 Rocket 3.7 19:04:13 10° S 19:08:41 47° SE 19:08:41 47° SE
Cosmos 1809 Rocket 4.3 19:03:47 10° S 19:09:49 65° E 19:15:55 10° NNE
Cosmos 2298 Rocket 3.9 19:06:31 10° SSW 19:11:49 74° ESE 19:13:35 43° NE
Cosmos 1689 Rocket 3.7 19:13:24 33° W 19:13:24 33° W 19:15:35 10° SW
Cosmos 2266 Rocket 3.9 19:07:52 10° S 19:13:59 63° E 19:20:03 10° NNE
YAOGAN 1 3.8 19:11:58 10° S 19:16:04 41° W 19:20:12 10° NNW
NOSS 2-2 (C) 4.4 19:13:50 10° NW 19:19:04 60° NE 19:20:07 53° E
HJ-1C 4.5 19:20:23 43° WNW 19:20:23 43° WNW 19:23:15 10° NNW
In-Cosmos 22 Rocket 4.1 19:17:53 10° S 19:23:41 86° E 19:29:23 10° NNE
X-37B 3.0 19:22:02 10° W 19:23:54 21° SW 19:23:54 21° SW
Cosmos 1943 Rocket 4.2 19:22:43 10° S 19:23:18 13° SSE 19:23:18 13° SSE
ISS -1.6 19:25:10 10° WNW 19:26:49 25° NW 19:26:49 25° NW
Cosmos 2082 Rocket 2.7 19:23:01 10° NNW 19:28:38 58° WSW 19:33:42 13° S
Cosmos 1241 Rocket 4.4 19:25:02 10° SSW 19:31:31 83° ESE 19:33:15 53° NE
CZ-4 R/B 3.9 19:31:44 10° SW 19:34:50 21° W 19:37:55 10° NW
ERS-2 4.5 19:33:12 12° NNW 19:35:38 22° WNW 19:38:30 10° WSW
MetOp-A 4.2 19:37:47 63° N 19:37:47 63° N 19:42:20 10° NNW
Meteor 2-21 4.3 19:33:30 10° S 19:39:35 89° W 19:45:47 10° N
NOSS 2-2 (E) 4.4 19:36:45 10° NW 19:42:21 89° SW 19:43:31 64° SE
ATLAS 5 CENTAUR R/B 4.2 19:40:47 10° NNW 19:42:29 13° N 19:42:29 13° N
Cosmos 2315 Rocket 3.8 19:39:57 10° N 19:46:14 85° E 19:46:33 80° SE
Cosmos 883 Rocket 4.4 19:40:49 10° N 19:47:02 81° W 19:50:11 31° S
Meteor 2-14 Rocket 4.4 19:41:32 10° SSW 19:47:36 81° W 19:53:45 10° N
ATLAS 2AS CENTAUR R/B 4.1 19:41:41 10° NW 19:47:52 25° NNE 19:48:21 25° NNE
USA 234 3.8 19:53:13 44° NNE 19:53:19 44° NNE 19:59:28 10° NW
Cosmos 2278 Rocket 3.8 19:50:53 10° WSW 19:55:55 32° NW 19:59:05 19° N
CZ-4C R/B 4.0 19:52:13 10° NNW 19:56:57 27° NNE 19:56:57 27° NNE
USA 281 4.5 20:04:50 28° N 20:04:50 28° N 20:08:13 10° NNW
Cosmos 44 Rocket 4.3 19:58:11 10° SW 20:02:05 45° W 20:02:05 45° W
CZ-2C R/B 3.9 20:15:10 18° N 20:18:55 40° WNW 20:24:06 10° SW
ATLAS 5 CENTAUR R/B 4.5 20:21:42 10° SSW 20:39:15 54° S 20:39:15 54° S
